Regional Weather Roundup
Issued by NWS

Home | Current Version | Previous Version | Graphics & Text | Print | Product List | Glossary On
Versions: 1 2 3 4 5 6 7 8 9 10 11 12 13 14 15 16 17 18 19 20 21 22 23 24 25 26 27 28 29 30 31 32 33 34 35 36 37 38 39 40 41 42 43 44 45 46 47 48 49 50
000
ASUS43 KMKX 302311
RWRWI

WISCONSIN REGIONAL WEATHER ROUNDUP
NATIONAL WEATHER SERVICE MILWAUKEE/SULLIVAN WI
600 PM CDT SUN AUG 30 2015

NOTE: "FAIR" INDICATES FEW OR NO CLOUDS BELOW 12,000 FEET WITH NO
SIGNIFICANT WEATHER AND/OR OBSTRUCTIONS TO VISIBILITY.

WIZ001-002-006>008-014>016-023>028-310000-
NORTHWEST WISCONSIN

CITY           SKY/WX    TMP DP  RH WIND       PRES   REMARKS
SUPERIOR ARPT  SUNNY     80  67  64 SW8       29.85F HX  82
ASHLAND        SUNNY     78  64  61 SW10      29.88F HX  80
HAYWARD        SUNNY     76  64  66 S9        29.93S
SIREN          SUNNY     78  64  61 S9        29.92F HX  80
CUMBERLAND     SUNNY     73  63  68 S8        29.95F
RICE LAKE      SUNNY     74  65  71 S7        29.96F
CHETEK         SUNNY    N/A N/A N/A S6        29.95S
LADYSMITH      SUNNY     76  65  68 S9        29.98S
EAU CLAIRE     SUNNY     75  63  66 S12       29.96S
MENOMONIE      SUNNY     76  66  71 S7        29.96S
NEW RICHMOND   SUNNY     76  64  64 S9        29.95R
OSCEOLA        SUNNY     78  66  66 S12       29.95F HX  80
$$

WIZ003>005-009-010-017-018-310000-
NORTH CENTRAL WISCONSIN

CITY           SKY/WX    TMP DP  RH WIND       PRES   REMARKS
MANITOWISH WTR SUNNY     76  63  64 SW9       29.95S
ARBOR VITAE    SUNNY     77  65  67 SW7       29.96S
WOODRUFF       SUNNY     77  65  67 SW7       29.96S
RHINELANDER    SUNNY     75  63  66 SW10      29.99S
EAGLE RIVER    SUNNY     75  60  60 SW9       29.96S
LAND O LAKES   SUNNY     76  63  62 S5        29.96S
PHILLIPS       SUNNY     76  64  67 SW10      29.96S
TOMAHAWK       SUNNY     74  64  68 SW5       29.98F
MEDFORD        SUNNY     72  64  75 S7        29.99F
MERRILL        SUNNY     76  65  68 SW10      29.99S
$$

WIZ029-030-035-036-043>047-310000-
CENTRAL WISCONSIN

CITY           SKY/WX    TMP DP  RH WIND       PRES   REMARKS
WAUSAU         SUNNY     76  63  64 SW12      29.98S
MOSINEE        SUNNY     73  64  73 SW8       30.00F
MARSHFIELD     SUNNY     76  62  62 SW9       29.99F
STEVENS POINT  SUNNY     73  62  67 SW9       30.00S
WAUPACA        SUNNY     76  65  67 S7        29.99F
WAUTOMA        SUNNY     75  66  73 S7        30.00F
WISC RAPIDS    SUNNY     75  63  66 S9        30.00F
CAMP DOUGLAS   SUNNY     74  71  90 SW7       29.99F
$$

WIZ011>013-019>022-031-037>040-048>050-310000-
NORTHEAST WISCONSIN

CITY           SKY/WX    TMP DP  RH WIND       PRES   REMARKS
ANTIGO         SUNNY     74  63  67 SW10      30.00S
SHAWANO        SUNNY     75  65  69 SW5       29.99S
OCONTO         SUNNY     73  65  75 SW6       29.97S
STURGEON BAY   SUNNY     73  63  68 SW9       30.00F
GREEN BAY      SUNNY     73  64  73 SW7       29.99F
MANITOWOC      SUNNY     67  61  81 MISG      30.01S
APPLETON       SUNNY     72  63  73 S9        29.99F
CLINTONVILLE   SUNNY     73  63  68 S9        29.99S
OSHKOSH        SUNNY     72  64  76 SW5       30.00F
$$

WIZ032>034-041-042-053>061-310000-
SOUTHWEST WISCONSIN

CITY           SKY/WX    TMP DP  RH WIND       PRES   REMARKS
LA CROSSE      MOSUNNY   75  65  70 S8        29.98F
SPARTA         SUNNY     73  62  66 S6        30.01S
VIROQUA          N/A     71  64  77 S6        30.02F
BOSCOBEL       MOSUNNY   75  65  70 SW5       30.01F
PRAIRIE DU CHI MOSUNNY   74  62  67 S3        30.01S
PLATTEVILLE    SUNNY     73  66  81 SW5       30.03S
$$

WIZ056-057-062-063-064-067-068-310000-
SOUTH CENTRAL WISCONSIN

CITY           SKY/WX    TMP DP  RH WIND       PRES   REMARKS
REEDSBURG      SUNNY     73  65  76 SW5       30.01S
BARABOO/DELLS  SUNNY     74  63  67 SW6       30.02S
LONE ROCK      SUNNY     75  64  68 SW6       30.01F
MINERAL POINT  MOSUNNY   73  64  73 SW5       30.03F
MADISON        PTSUNNY   73  62  68 SW5       30.01F
MIDDLETON      SUNNY     75  63  66 SW5       30.02F
WATERTOWN      SUNNY     72  67  84 SW3       30.02F
MONROE         SUNNY     72  63  73 S3        30.03F
JANESVILLE     SUNNY     75  63  64 SW3       30.02F
$$

WIZ051-052-058>065-066-070>072-310000-
SOUTHEAST WISCONSIN

CITY           SKY/WX    TMP DP  RH WIND       PRES   REMARKS
MILWAUKEE      CLOUDY    68  62  81 SE6       30.02S
WAUKESHA       MOSUNNY   72  63  73 W7        30.04S
MILWAUKEE/TIMM MOSUNNY   73  61  64 W5        30.03S
RACINE         SUNNY     68  62  81 S8        30.04F
BURLINGTON     MOSUNNY   71  62  73 SW6       30.03S
KENOSHA        MOSUNNY   70  64  81 SE5       30.03S
FOND DU LAC    SUNNY     72  64  76 S8        30.00F
SHEBOYGAN      SUNNY     68  63  84 SE5       30.01F
WEST BEND      SUNNY     70  61  73 SW5       30.02F
JUNEAU         SUNNY     71  64  79 SW5       30.03F
$$

LSZ147-162-310000-
LAKE SUPERIOR

STATION/POSITION TIME  TEMP    WIND        PRES    WAVE
                       AIR SEA DIR/SP/G            HT/PER
                 (UTC) (F)     (DEG/KT/KT) (MB)    (FT/S)
W MID LAKE BUOY  2250   60 56  230/  6/  6 1010.8S   1
DEVILS ISLAND    2300   70     220/ 10/ 11 1010.6F
PORT WING        2200   81     200/  7/ 12 1011.2
SAXON HARBOR     2200   82     200/  7/ 11 1011.2
$$

LMZ867-665-643>646-310000-
LAKE MICHIGAN

STATION/POSITION TIME  TEMP    WIND        PRES    WAVE
                       AIR SEA DIR/SP/G            HT/PER
                 (UTC) (F)     (DEG/KT/KT) (MB)    (FT/S)
CHAMBERS ISLAND  2200   71     180/  7/ 15 1014.9F
S GREEN BAY BUOY 2230   68 64  200/  8/ 12 1016.5F
N MID LAKE BUOY  2250   65 65  200/ 16/ 17 1014.4F   2/ 4
NORTHPORT PIER   2200   68     150/  6/ 10 1014.6F
SHEBOYGAN LAKESH 2300   62     180/ 16/ 16 1016.4F
PORT WASHINGTON  2200   65     200/  3/  6 1017.3
ATWATER BUOY     2300   58 51   CALM  /  2 1018.2S
MILWAUKEE LAKESH 2200   64      CALM  /  1   N/A
S MID LAKE BUOY  2250   67 69   70/  2/  2 1016.7F   1
KENOSHA   LAKESH 2300   64     150/  8/  8 1016.3F
$$

TC  - TEMPERATURE IN CELSIUS
VSB - VISIBILITY IN STATUTE MILES
WCI - WIND CHILL INDEX
HX  - HEAT INDEX



USA.gov is the U.S. government's official web portal to all federal, state and local government web resources and services.